GW0859 Weather Reports


time (UTC)temp
F
wind
direction
speed
knots
gust
knots
rain 1hr
in
rain 24hr
in
rain mn
in
humidity
%
barometer
mb
20260510081113 50 153 0.0 0.0 0.00 0.00 0.00 99 1011.7
20260510080110 50 152 0.0 0.0 0.00 0.00 0.00 99 1012.3
20260510075110 50 151 0.0 0.0 0.00 0.00 0.00 99 1011.8
20260510074108 50 172 0.9 0.9 0.00 0.00 0.00 99 1012.1
20260510073108 51 163 0.0 0.0 0.00 0.00 0.00 99 1012.4
20260510072106 51 162 0.0 0.9 0.00 0.00 0.00 99 1012.6
20260510071106 51 141 0.0 0.0 0.00 0.00 0.00 99 1012.6
20260510070106 51 141 0.0 0.0 0.00 0.00 0.00 99 1012.8
20260510065104 51 125 0.0 0.0 0.00 0.00 0.00 99 1012.5
20260510064103 51 141 0.9 0.9 0.00 0.00 0.00 99 1012.5
20260510063103 51 227 0.0 0.9 0.00 0.00 0.00 99 1012.0
20260510062100 50 180 0.0 0.0 0.00 0.00 0.00 99 1012.3
20260510061100 50 180 0.0 0.0 0.00 0.00 0.00 99 1012.0
20260510060058 50 161 0.0 0.0 0.00 0.00 0.00 99 1012.3
20260510055058 50 114 0.0 0.0 0.00 0.00 0.00 99 1012.0
20260510054055 51 119 0.0 0.9 0.00 0.00 0.00 99 1012.5
20260510053052 51 113 0.0 0.9 0.00 0.00 0.00 99 1012.5
20260510052050 50 131 0.0 0.0 0.00 0.00 0.00 99 1012.4
20260510051048 50 83 0.9 0.9 0.00 0.00 0.00 99 1012.3
20260510050048 51 188 0.0 0.0 0.00 0.00 0.00 99 1012.4
20260510045047 50 188 0.0 0.0 0.00 0.00 0.00 99 1012.3
20260510044042 50 174 0.0 0.0 0.00 0.00 0.00 99 1012.0
20260510043039 50 186 0.0 0.9 0.00 0.00 0.00 99 1012.1
20260510042033 49 125 0.0 0.0 0.00 0.00 0.00 99 1012.1
20260510041028 49 137 0.0 0.0 0.00 0.00 0.00 99 1011.9
20260510040026 48 135 0.0 0.9 0.00 0.35 0.35 99 1012.1
20260510035022 47 137 0.0 0.0 0.00 0.35 0.35 99 1012.0
20260510034017 47 136 0.0 0.0 0.00 0.35 0.35 99 1011.9
20260510033017 47 136 0.0 0.0 0.00 0.35 0.35 99 1011.6
20260510032014 46 117 0.0 0.0 0.00 0.35 0.35 99 1011.9
20260510031011 46 252 0.9 0.9 0.00 0.35 0.35 99 1011.7
20260510030011 46 208 0.9 0.9 0.00 0.35 0.35 99 1011.8
20260510025005 46 206 0.0 0.0 0.00 0.35 0.35 99 1011.6
20260510024003 47 206 0.0 0.0 0.00 0.35 0.35 99 1011.6
20260510023003 47 206 0.0 0.0 0.00 0.35 0.35 99 1011.4
20260510022002 47 206 0.0 0.0 0.00 0.35 0.35 99 1011.6
20260510021001 48 205 0.0 0.0 0.00 0.35 0.35 99 1011.5
20260510015958 48 203 0.0 0.0 0.00 0.35 0.35 99 1011.4
20260510014955 48 202 0.0 0.0 0.00 0.35 0.35 99 1011.3
20260510013949 49 203 0.0 0.9 0.00 0.35 0.35 99 1011.5
20260510012946 49 194 0.0 0.0 0.00 0.35 0.35 99 1011.3
20260510011942 49 194 0.9 0.9 0.00 0.35 0.35 99 1011.3
20260510010939 49 194 0.0 0.0 0.00 0.35 0.35 99 1011.1
20260510005939 50 194 0.0 0.0 0.00 0.35 0.35 99 1011.0
20260510004939 50 194 0.0 0.0 0.00 0.35 0.35 99 1011.0
20260510003934 50 194 0.0 0.0 0.00 0.35 0.35 99 1011.0
20260510002929 51 194 0.0 0.0 0.00 0.35 0.35 99 1011.1
20260510001929 51 195 0.0 0.0 0.00 0.35 0.35 99 1010.8
20260510000924 52 194 0.0 0.0 0.00 0.35 0.35 99 1010.6
20260509235922 52 194 0.0 0.9 0.00 0.35 0.35 99 1010.6
20260509234921 53 194 0.0 0.0 0.00 0.35 0.35 99 1010.6
20260509233917 53 195 0.0 0.0 0.00 0.35 0.35 99 1010.4
20260509232916 53 187 0.0 0.0 0.00 0.35 0.35 99 1010.4
20260509231915 54 187 0.0 0.0 0.00 0.35 0.35 99 1010.3
20260509230910 54 168 0.0 0.0 0.00 0.35 0.35 98 1010.3
20260509225908 55 179 0.9 0.9 0.00 0.35 0.35 97 1010.4
20260509224907 55 176 0.0 0.0 0.00 0.35 0.35 97 1010.4
20260509223906 55 169 0.0 0.0 0.00 0.35 0.35 97 1010.4
20260509222905 55 175 0.0 0.0 0.00 0.35 0.35 97 1010.4
20260509221901 55 168 0.0 0.9 0.00 0.35 0.35 97 1010.5
20260509220900 55 173 0.9 0.9 0.00 0.35 0.35 97 1010.4
20260509215858 55 158 0.0 0.9 0.00 0.35 0.35 97 1010.5
20260509214857 55 191 0.9 0.9 0.00 0.35 0.35 97 1010.4
20260509213852 55 208 1.7 1.7 0.00 0.35 0.35 95 1010.5
20260509212851 55 180 0.9 0.9 0.00 0.35 0.35 96 1010.6
20260509211849 56 178 0.9 0.9 0.00 0.35 0.35 97 1010.6
20260509210848 55 190 0.9 1.7 0.00 0.35 0.35 99 1010.8
20260509205846 54 175 0.0 0.0 0.00 0.35 0.35 99 1010.9
20260509204843 54 140 1.7 1.7 0.00 0.35 0.35 99 1010.9
20260509203841 54 158 0.0 0.9 0.00 0.35 0.35 99 1011.0
20260509202841 53 175 0.0 0.0 0.00 0.35 0.35 99 1011.1
20260509201837 53 186 0.9 0.9 0.00 0.35 0.35 99 1011.2
20260509200835 53 160 1.7 1.7 0.00 0.35 0.35 99 1011.3
20260509195833 52 152 0.0 0.9 0.00 0.35 0.35 99 1011.2
20260509194833 53 181 0.0 0.0 0.00 0.35 0.35 99 1011.2
20260509193832 52 159 0.0 0.0 0.05 0.35 0.35 99 1011.2
20260509192828 52 180 0.0 0.0 0.00 0.34 0.34 99 1011.8
20260509191825 51 149 0.0 0.0 0.07 0.34 0.34 99 1011.8
20260509190823 51 173 0.0 0.0 0.12 0.32 0.32 99 1012.0
20260509185818 52 155 0.0 0.9 0.12 0.31 0.31 99 1012.1
20260509184818 52 166 0.0 0.0 0.07 0.29 0.29 99 1012.4
20260509183817 52 176 0.9 0.9 0.05 0.28 0.28 99 1012.3
20260509182814 52 179 0.9 0.9 0.12 0.27 0.27 99 1012.3
20260509181814 52 171 0.0 0.0 0.12 0.26 0.26 99 1012.3
20260509180809 52 169 0.0 0.0 0.12 0.24 0.24 99 1012.3
20260509175807 52 221 0.9 0.9 0.19 0.22 0.22 99 1012.5
20260509174806 52 172 0.0 0.0 0.12 0.19 0.19 99 1012.4
20260509173803 52 175 0.0 0.0 0.17 0.17 0.17 99 1012.4
20260509172801 52 213 0.9 0.9 0.19 0.14 0.14 99 1012.6
20260509171800 52 177 0.0 0.0 0.19 0.11 0.11 99 1012.5
20260509170758 53 154 0.9 0.9 0.12 0.08 0.08 99 1012.4
20260509165753 53 191 0.9 0.9 0.05 0.06 0.06 98 1012.6
20260509164751 54 174 0.0 0.9 0.07 0.05 0.05 97 1012.7
20260509163750 54 142 1.7 2.6 0.05 0.04 0.04 95 1012.7
20260509162745 55 221 1.7 2.6 0.00 0.03 0.03 94 1012.5
20260509161741 55 180 1.7 1.7 0.00 0.03 0.03 94 1012.8
20260509160738 55 200 0.9 1.7 0.00 0.03 0.03 93 1012.7
20260509155736 55 150 0.0 0.0 0.00 0.03 0.03 93 1012.7
20260509154735 55 177 0.0 0.0 0.00 0.03 0.03 94 1012.7
20260509153735 55 172 0.0 0.0 0.00 0.03 0.03 96 1012.9
20260509152733 54 183 0.0 0.9 0.00 0.03 0.03 98 1013.1
20260509151733 53 155 0.0 0.0 0.00 0.03 0.03 98 1012.5
20260509150733 52 167 0.9 0.9 0.00 0.03 0.03 97 1012.3
20260509145728 53 151 0.0 0.9 0.00 0.03 0.03 98 1012.6
20260509144725 53 148 0.0 0.0 0.00 0.03 0.03 97 1012.6
20260509143725 52 112 0.0 0.0 0.00 0.03 0.03 96 1012.9
20260509142723 52 210 0.9 0.9 0.00 0.03 0.03 97 1012.8
20260509141721 52 164 0.0 0.9 0.07 0.03 0.03 96 1013.0
20260509140721 52 170 0.0 0.0 0.00 0.02 0.02 97 1013.1
20260509135716 52 145 0.0 0.0 0.00 0.02 0.02 97 1012.8
20260509134716 51 145 0.0 0.0 0.05 0.02 0.02 96 1012.8
20260509133711 52 169 0.0 0.0 0.00 0.01 0.01 94 1012.3
20260509132706 52 147 0.9 0.9 0.00 0.01 0.01 94 1012.4
20260509131706 52 134 0.0 0.0 0.07 0.01 0.01 93 1012.1
20260509130705 51 161 0.0 0.0 0.00 0.00 0.00 92 1012.5
20260509125703 51 131 0.0 0.0 0.00 0.00 0.00 92 1012.4
20260509124702 52 120 0.0 0.0 0.00 0.00 0.00 91 1012.6
20260509123658 52 156 0.0 0.0 0.00 0.00 0.00 91 1012.7
20260509122656 51 146 0.0 0.0 0.00 0.00 0.00 90 1012.9
20260509121655 51 115 0.0 0.0 0.00 0.00 0.00 91 1012.9
20260509120651 51 160 0.0 0.0 0.00 0.00 0.00 92 1013.0
20260509115646 50 121 0.0 0.0 0.00 0.00 0.00 93 1012.4
20260509114642 50 167 0.0 0.0 0.00 0.00 0.00 94 1012.9
20260509113638 50 145 0.0 0.0 0.00 0.00 0.00 95 1012.7
20260509112638 50 144 0.0 0.0 0.00 0.00 0.00 95 1012.4
20260509111638 49 162 0.0 0.0 0.00 0.00 0.00 94 1012.4
20260509110637 49 152 0.0 0.0 0.00 0.00 0.00 95 1012.4
20260509105632 48 161 0.0 0.0 0.00 0.00 0.00 96 1012.3
20260509104632 48 150 0.9 0.9 0.00 0.00 0.00 96 1012.1
20260509103627 48 114 0.9 0.9 0.00 0.00 0.00 98 1012.0
20260509102627 47 169 0.0 0.9 0.00 0.00 0.00 99 1012.3
20260509101626 47 161 0.0 0.0 0.00 0.00 0.00 99 1012.1
20260509100626 47 181 0.0 0.0 0.00 0.00 0.00 99 1012.4
20260509095626 47 184 0.0 0.0 0.00 0.00 0.00 99 1012.5
20260509094625 47 184 0.0 0.0 0.00 0.00 0.00 99 1012.4
20260509093621 47 184 0.0 0.0 0.00 0.00 0.00 99 1012.5
20260509092621 47 183 0.0 0.9 0.00 0.00 0.00 99 1012.3
20260509091617 46 186 0.9 0.9 0.00 0.00 0.00 99 1012.6
20260509090617 46 184 0.0 0.0 0.00 0.00 0.00 99 1012.3
20260509085612 46 185 0.0 0.0 0.00 0.00 0.00 99 1012.5
20260509084610 46 174 0.0 0.9 0.00 0.00 0.00 99 1012.9
20260509083605 46 121 0.0 0.0 0.00 0.00 0.00 99 1012.9
20260509082604 46 121 0.0 0.0 0.00 0.00 0.00 99 1012.8